| time (UTC) | temp C | wind direction | speed KPH | gust KPH | rain 1hr cm | rain 24hr cm | rain mn cm | humidity % | barometer mb |
| 20260504213804 | 20 | 276 | 6.4 | 14.5 | 0.00 | 0.00 | 0.00 | 49 | 1012.1 |
| 20260504213300 | 20 | 313 | 12.9 | 17.7 | 0.00 | 0.00 | 0.00 | 49 | 1012.1 |
| 20260504212758 | 20 | 318 | 6.4 | 11.3 | 0.00 | 0.00 | 0.00 | 50 | 1012.0 |
| 20260504212254 | 20 | 302 | 11.3 | 17.7 | 0.00 | 0.00 | 0.00 | 49 | 1012.3 |
| 20260504211752 | 20 | 285 | 6.4 | 16.1 | 0.00 | 0.00 | 0.00 | 49 | 1012.1 |
| 20260504211247 | 20 | 222 | 8.0 | 12.9 | 0.00 | 0.00 | 0.00 | 49 | 1011.9 |
| 20260504210745 | 20 | 289 | 6.4 | 14.5 | 0.00 | 0.00 | 0.00 | 49 | 1012.3 |
| 20260504210242 | 20 | 277 | 8.0 | 12.9 | 0.00 | 0.00 | 0.00 | 49 | 1012.4 |
| 20260504205739 | 20 | 318 | 12.9 | 17.7 | 0.00 | 0.00 | 0.00 | 48 | 1012.3 |
| 20260504205237 | 20 | 292 | 12.9 | 17.7 | 0.00 | 0.00 | 0.00 | 48 | 1012.1 |
| 20260504204735 | 21 | 315 | 8.0 | 20.9 | 0.00 | 0.00 | 0.00 | 49 | 1012.0 |
| 20260504204233 | 21 | 232 | 14.5 | 17.7 | 0.00 | 0.00 | 0.00 | 48 | 1011.9 |
| 20260504203732 | 21 | 238 | 9.7 | 16.1 | 0.00 | 0.00 | 0.00 | 46 | 1011.8 |
| 20260504203229 | 21 | 218 | 11.3 | 22.5 | 0.00 | 0.00 | 0.00 | 48 | 1012.0 |
| 20260504202729 | 21 | 202 | 8.0 | 14.5 | 0.00 | 0.00 | 0.00 | 46 | 1011.9 |
| 20260504202226 | 21 | 270 | 6.4 | 12.9 | 0.00 | 0.00 | 0.00 | 47 | 1011.9 |
| 20260504201723 | 21 | 272 | 9.7 | 22.5 | 0.00 | 0.00 | 0.00 | 46 | 1011.9 |
| 20260504201220 | 21 | 289 | 14.5 | 17.7 | 0.00 | 0.00 | 0.00 | 44 | 1012.0 |
| 20260504200718 | 21 | 273 | 6.4 | 12.9 | 0.00 | 0.00 | 0.00 | 46 | 1011.9 |
| 20260504200214 | 21 | 273 | 6.4 | 16.1 | 0.00 | 0.00 | 0.00 | 47 | 1012.0 |
| 20260504195711 | 21 | 241 | 11.3 | 20.9 | 0.00 | 0.00 | 0.00 | 44 | 1011.9 |
| 20260504195206 | 22 | 247 | 6.4 | 22.5 | 0.00 | 0.00 | 0.00 | 48 | 1011.9 |
| 20260504194703 | 22 | 198 | 11.3 | 24.1 | 0.00 | 0.00 | 0.00 | 45 | 1011.7 |
| 20260504194159 | 21 | 226 | 14.5 | 24.1 | 0.00 | 0.00 | 0.00 | 47 | 1012.1 |
| 20260504193656 | 21 | 233 | 8.0 | 20.9 | 0.00 | 0.00 | 0.00 | 49 | 1012.0 |
| 20260504193154 | 22 | 279 | 9.7 | 20.9 | 0.00 | 0.00 | 0.00 | 46 | 1012.1 |
| 20260504192652 | 21 | 248 | 6.4 | 14.5 | 0.00 | 0.00 | 0.00 | 50 | 1012.1 |
| 20260504192150 | 21 | 296 | 16.1 | 24.1 | 0.00 | 0.00 | 0.00 | 47 | 1012.5 |
| 20260504191649 | 21 | 256 | 20.9 | 25.7 | 0.00 | 0.00 | 0.00 | 46 | 1012.6 |
| 20260504191144 | 21 | 214 | 14.5 | 24.1 | 0.00 | 0.00 | 0.00 | 48 | 1012.4 |
| 20260504190640 | 21 | 283 | 9.7 | 20.9 | 0.00 | 0.00 | 0.00 | 49 | 1012.5 |
| 20260504190137 | 21 | 283 | 9.7 | 16.1 | 0.00 | 0.00 | 0.00 | 48 | 1012.4 |
| 20260504185633 | 20 | 285 | 11.3 | 16.1 | 0.00 | 0.00 | 0.00 | 48 | 1012.5 |
| 20260504185130 | 21 | 219 | 19.3 | 33.8 | 0.00 | 0.00 | 0.00 | 48 | 1012.8 |
| 20260504184626 | 21 | 252 | 8.0 | 16.1 | 0.00 | 0.00 | 0.00 | 50 | 1012.8 |
| 20260504184121 | 21 | 222 | 11.3 | 20.9 | 0.00 | 0.00 | 0.00 | 50 | 1012.8 |
| 20260504183618 | 20 | 243 | 8.0 | 22.5 | 0.00 | 0.00 | 0.00 | 49 | 1012.8 |
| 20260504183116 | 20 | 249 | 11.3 | 20.9 | 0.00 | 0.00 | 0.00 | 51 | 1012.9 |
| 20260504182613 | 20 | 238 | 8.0 | 22.5 | 0.00 | 0.00 | 0.00 | 53 | 1013.1 |
| 20260504182110 | 20 | 216 | 6.4 | 22.5 | 0.00 | 0.00 | 0.00 | 56 | 1012.9 |
| 20260504181608 | 20 | 216 | 12.9 | 20.9 | 0.00 | 0.00 | 0.00 | 51 | 1013.1 |
| 20260504181105 | 19 | 207 | 12.9 | 24.1 | 0.00 | 0.00 | 0.00 | 55 | 1013.2 |
| 20260504180604 | 20 | 221 | 6.4 | 17.7 | 0.00 | 0.00 | 0.00 | 56 | 1013.2 |
| 20260504180103 | 20 | 202 | 11.3 | 16.1 | 0.00 | 0.00 | 0.00 | 57 | 1013.2 |
| 20260504175600 | 20 | 262 | 4.8 | 9.7 | 0.00 | 0.00 | 0.00 | 54 | 1013.4 |
| 20260504175056 | 18 | 288 | 9.7 | 14.5 | 0.00 | 0.00 | 0.00 | 57 | 1013.4 |
| 20260504174554 | 19 | 253 | 17.7 | 17.7 | 0.00 | 0.00 | 0.00 | 53 | 1013.5 |
| 20260504174051 | 18 | 271 | 11.3 | 17.7 | 0.00 | 0.00 | 0.00 | 55 | 1013.5 |
| 20260504173548 | 18 | 283 | 6.4 | 20.9 | 0.00 | 0.00 | 0.00 | 57 | 1013.6 |
| 20260504173045 | 18 | 285 | 6.4 | 20.9 | 0.00 | 0.00 | 0.00 | 56 | 1013.7 |
| 20260504172541 | 18 | 250 | 12.9 | 20.9 | 0.00 | 0.00 | 0.00 | 55 | 1013.9 |
| 20260504172038 | 18 | 209 | 6.4 | 11.3 | 0.00 | 0.00 | 0.00 | 59 | 1014.1 |
| 20260504171535 | 17 | 228 | 8.0 | 24.1 | 0.00 | 0.00 | 0.00 | 58 | 1014.0 |
| 20260504171032 | 18 | 288 | 14.5 | 27.4 | 0.00 | 0.00 | 0.00 | 55 | 1014.2 |
| 20260504170527 | 18 | 285 | 11.3 | 16.1 | 0.00 | 0.00 | 0.00 | 56 | 1013.9 |
| 20260504150912 | 16 | 268 | 9.7 | 17.7 | 0.00 | 0.00 | 0.00 | 52 | 1015.4 |
| 20260504150408 | 17 | 254 | 14.5 | 24.1 | 0.00 | 0.00 | 0.00 | 50 | 1015.5 |
| 20260504140835 | 16 | 297 | 12.9 | 22.5 | 0.00 | 0.00 | 0.00 | 49 | 1015.0 |
| 20260504140330 | 16 | 226 | 17.7 | 24.1 | 0.00 | 0.00 | 0.00 | 48 | 1015.4 |
| 20260504130759 | 15 | 212 | 6.4 | 11.3 | 0.00 | 0.00 | 0.00 | 52 | 1015.0 |
| 20260504130255 | 14 | 165 | 6.4 | 12.9 | 0.00 | 0.00 | 0.00 | 51 | 1015.1 |
| 20260504120219 | 11 | 155 | 3.2 | 4.8 | 0.00 | 0.00 | 0.00 | 65 | 1015.6 |
| 20260504110646 | 7 | 107 | 0.0 | 0.0 | 0.00 | 0.00 | 0.00 | 82 | 1015.6 |
| 20260504110143 | 7 | 150 | 0.0 | 3.2 | 0.00 | 0.00 | 0.00 | 81 | 1015.7 |
| 20260504100609 | 6 | 142 | 0.0 | 0.0 | 0.00 | 0.00 | 0.00 | 90 | 1015.9 |
| 20260504100108 | 6 | 143 | 0.0 | 0.0 | 0.00 | 0.00 | 0.00 | 89 | 1016.1 |
| 20260504082002 | 8 | 123 | 3.2 | 3.2 | 0.00 | 0.00 | 0.00 | 65 | 1016.4 |
| 20260504081500 | 8 | 120 | 0.0 | 1.6 | 0.00 | 0.00 | 0.00 | 66 | 1016.4 |
| 20260504080955 | 8 | 113 | 0.0 | 0.0 | 0.00 | 0.00 | 0.00 | 67 | 1016.5 |
| 20260504080452 | 8 | 160 | 0.0 | 0.0 | 0.00 | 0.00 | 0.00 | 67 | 1016.5 |
| 20260504050305 | 6 | 124 | 0.0 | 0.0 | 0.00 | 0.00 | 0.00 | 88 | 1017.0 |
| 20260504045803 | 6 | 130 | 0.0 | 0.0 | 0.00 | 0.00 | 0.00 | 88 | 1017.1 |
| 20260504045304 | 6 | 130 | 0.0 | 0.0 | 0.00 | 0.00 | 0.00 | 90 | 1017.1 |
| 20260504044800 | 6 | 127 | 0.0 | 0.0 | 0.00 | 0.00 | 0.00 | 90 | 1017.1 |
| 20260504044257 | 6 | 141 | 0.0 | 0.0 | 0.00 | 0.00 | 0.00 | 88 | 1017.1 |
| 20260504043754 | 6 | 141 | 0.0 | 0.0 | 0.00 | 0.00 | 0.00 | 87 | 1017.0 |
| 20260504043251 | 6 | 141 | 0.0 | 0.0 | 0.00 | 0.00 | 0.00 | 89 | 1017.0 |
| 20260504042749 | 6 | 141 | 0.0 | 0.0 | 0.00 | 0.00 | 0.00 | 90 | 1017.2 |
| 20260504042245 | 6 | 141 | 0.0 | 0.0 | 0.00 | 0.00 | 0.00 | 90 | 1017.1 |
| 20260504041741 | 6 | 141 | 0.0 | 0.0 | 0.00 | 0.00 | 0.00 | 88 | 1017.1 |
| 20260504041237 | 6 | 143 | 0.0 | 0.0 | 0.00 | 0.00 | 0.00 | 87 | 1017.1 |
| 20260504040734 | 6 | 146 | 0.0 | 0.0 | 0.00 | 0.00 | 0.00 | 87 | 1017.1 |
| 20260504040232 | 5 | 146 | 0.0 | 0.0 | 0.00 | 0.00 | 0.00 | 86 | 1017.3 |
| 20260504035727 | 5 | 146 | 0.0 | 0.0 | 0.00 | 0.00 | 0.00 | 85 | 1017.1 |
| 20260504035225 | 5 | 146 | 0.0 | 0.0 | 0.00 | 0.00 | 0.00 | 89 | 1017.0 |
| 20260504034722 | 5 | 139 | 0.0 | 0.0 | 0.00 | 0.00 | 0.00 | 89 | 1017.2 |
| 20260504034219 | 5 | 136 | 0.0 | 0.0 | 0.00 | 0.00 | 0.00 | 87 | 1017.0 |
| 20260504033717 | 5 | 136 | 0.0 | 0.0 | 0.00 | 0.00 | 0.00 | 84 | 1017.1 |
| 20260504033214 | 5 | 136 | 0.0 | 0.0 | 0.00 | 0.00 | 0.00 | 85 | 1017.1 |
| 20260504032711 | 5 | 141 | 0.0 | 0.0 | 0.00 | 0.00 | 0.00 | 87 | 1017.1 |
| 20260504032208 | 5 | 141 | 0.0 | 0.0 | 0.00 | 0.00 | 0.00 | 86 | 1017.1 |
| 20260504031705 | 5 | 141 | 0.0 | 0.0 | 0.00 | 0.00 | 0.00 | 87 | 1017.3 |
| 20260504031202 | 5 | 141 | 0.0 | 0.0 | 0.00 | 0.00 | 0.00 | 84 | 1017.2 |
| 20260504030658 | 5 | 141 | 0.0 | 0.0 | 0.00 | 0.00 | 0.00 | 85 | 1017.2 |
| 20260504030155 | 5 | 141 | 0.0 | 0.0 | 0.00 | 0.00 | 0.00 | 86 | 1017.3 |
| 20260504025651 | 5 | 141 | 0.0 | 0.0 | 0.00 | 0.00 | 0.00 | 86 | 1017.3 |
| 20260504025148 | 5 | 141 | 0.0 | 0.0 | 0.00 | 0.00 | 0.00 | 86 | 1017.2 |
| 20260504024646 | 5 | 141 | 0.0 | 0.0 | 0.00 | 0.00 | 0.00 | 86 | 1017.4 |
| 20260504024142 | 5 | 141 | 0.0 | 0.0 | 0.00 | 0.00 | 0.00 | 87 | 1017.4 |
| 20260504023639 | 4 | 140 | 0.0 | 0.0 | 0.00 | 0.00 | 0.00 | 84 | 1017.4 |
| 20260504023135 | 4 | 141 | 0.0 | 0.0 | 0.00 | 0.00 | 0.00 | 85 | 1017.3 |
| 20260504022631 | 4 | 135 | 0.0 | 0.0 | 0.00 | 0.00 | 0.00 | 83 | 1017.3 |
| 20260504022127 | 4 | 135 | 0.0 | 0.0 | 0.00 | 0.00 | 0.00 | 83 | 1017.4 |
| 20260504021625 | 5 | 135 | 0.0 | 0.0 | 0.00 | 0.00 | 0.00 | 83 | 1017.5 |
| 20260504021121 | 5 | 135 | 0.0 | 0.0 | 0.00 | 0.00 | 0.00 | 82 | 1017.5 |
| 20260504020619 | 4 | 135 | 0.0 | 0.0 | 0.00 | 0.00 | 0.00 | 82 | 1017.5 |
| 20260504020115 | 5 | 166 | 0.0 | 0.0 | 0.00 | 0.00 | 0.00 | 84 | 1017.4 |
| 20260504015611 | 5 | 130 | 0.0 | 0.0 | 0.00 | 0.00 | 0.00 | 80 | 1017.3 |
| 20260504015107 | 5 | 88 | 0.0 | 0.0 | 0.00 | 0.00 | 0.00 | 80 | 1017.3 |
| 20260504014603 | 4 | 150 | 0.0 | 0.0 | 0.00 | 0.00 | 0.00 | 82 | 1017.5 |
| 20260504014101 | 5 | 150 | 0.0 | 0.0 | 0.00 | 0.00 | 0.00 | 79 | 1017.4 |
| 20260504013558 | 5 | 188 | 0.0 | 0.0 | 0.00 | 0.00 | 0.00 | 81 | 1017.4 |
| 20260504013055 | 5 | 171 | 0.0 | 0.0 | 0.00 | 0.00 | 0.00 | 79 | 1017.2 |
| 20260504012552 | 5 | 142 | 0.0 | 0.0 | 0.00 | 0.00 | 0.00 | 75 | 1017.2 |
| 20260504012051 | 5 | 142 | 0.0 | 0.0 | 0.00 | 0.00 | 0.00 | 76 | 1017.2 |
| 20260504011547 | 5 | 161 | 0.0 | 0.0 | 0.00 | 0.00 | 0.00 | 77 | 1017.5 |
| 20260504011043 | 5 | 161 | 0.0 | 0.0 | 0.00 | 0.00 | 0.00 | 77 | 1017.4 |
| 20260504010539 | 6 | 161 | 0.0 | 0.0 | 0.00 | 0.00 | 0.00 | 76 | 1017.1 |
| 20260504010035 | 6 | 159 | 0.0 | 0.0 | 0.00 | 0.00 | 0.00 | 75 | 1017.1 |
| 20260504005532 | 6 | 159 | 0.0 | 0.0 | 0.00 | 0.00 | 0.00 | 72 | 1016.9 |
| 20260504005030 | 6 | 156 | 0.0 | 0.0 | 0.00 | 0.00 | 0.00 | 69 | 1017.1 |
| 20260504004527 | 6 | 173 | 0.0 | 0.0 | 0.00 | 0.00 | 0.00 | 70 | 1016.8 |
| 20260504004024 | 7 | 197 | 0.0 | 0.0 | 0.00 | 0.00 | 0.00 | 68 | 1016.9 |
| 20260504003520 | 7 | 197 | 0.0 | 0.0 | 0.00 | 0.00 | 0.00 | 67 | 1016.9 |
| 20260504003017 | 7 | 201 | 0.0 | 0.0 | 0.00 | 0.00 | 0.00 | 65 | 1017.0 |
| 20260504002514 | 8 | 174 | 0.0 | 0.0 | 0.00 | 0.00 | 0.00 | 61 | 1016.9 |
| 20260504002011 | 8 | 143 | 0.0 | 0.0 | 0.00 | 0.00 | 0.00 | 60 | 1016.8 |
| 20260504001509 | 9 | 9 | 0.0 | 0.0 | 0.00 | 0.00 | 0.00 | 56 | 1016.9 |
| 20260504001005 | 9 | 35 | 0.0 | 0.0 | 0.00 | 0.00 | 0.00 | 50 | 1016.7 |
| 20260504000502 | 9 | 26 | 0.0 | 0.0 | 0.00 | 0.00 | 0.00 | 51 | 1016.8 |
| 20260503235959 | 10 | 354 | 0.0 | 0.0 | 0.00 | 0.00 | 0.00 | 49 | 1016.9 |
| 20260503235457 | 10 | 288 | 0.0 | 1.6 | 0.00 | 0.00 | 0.00 | 47 | 1016.9 |
| 20260503234954 | 10 | 222 | 0.0 | 0.0 | 0.00 | 0.00 | 0.00 | 47 | 1017.0 |
| 20260503234452 | 10 | 280 | 0.0 | 1.6 | 0.00 | 0.00 | 0.00 | 46 | 1017.0 |
| 20260503233950 | 11 | 278 | 0.0 | 1.6 | 0.00 | 0.00 | 0.00 | 45 | 1017.0 |
| 20260503233446 | 11 | 294 | 3.2 | 4.8 | 0.00 | 0.00 | 0.00 | 44 | 1016.8 |
| 20260503232942 | 11 | 234 | 1.6 | 3.2 | 0.00 | 0.00 | 0.00 | 42 | 1017.1 |
| 20260503232439 | 12 | 236 | 3.2 | 6.4 | 0.00 | 0.00 | 0.00 | 41 | 1017.1 |
| 20260503231937 | 12 | 230 | 4.8 | 9.7 | 0.00 | 0.00 | 0.00 | 39 | 1017.1 |
| 20260503231434 | 12 | 254 | 4.8 | 6.4 | 0.00 | 0.00 | 0.00 | 39 | 1017.1 |
| 20260503230931 | 12 | 255 | 6.4 | 11.3 | 0.00 | 0.00 | 0.00 | 39 | 1016.9 |
| 20260503230427 | 12 | 266 | 1.6 | 3.2 | 0.00 | 0.00 | 0.00 | 42 | 1017.1 |
| 20260503225925 | 12 | 321 | 3.2 | 9.7 | 0.00 | 0.00 | 0.00 | 39 | 1017.1 |
| 20260503225422 | 12 | 253 | 4.8 | 11.3 | 0.00 | 0.00 | 0.00 | 38 | 1017.0 |
| 20260503224917 | 12 | 288 | 3.2 | 11.3 | 0.00 | 0.00 | 0.00 | 39 | 1017.2 |
| 20260503224414 | 12 | 298 | 3.2 | 11.3 | 0.00 | 0.00 | 0.00 | 39 | 1016.9 |
| 20260503223912 | 12 | 296 | 6.4 | 12.9 | 0.00 | 0.00 | 0.00 | 36 | 1017.2 |
| 20260503223410 | 12 | 301 | 9.7 | 12.9 | 0.00 | 0.00 | 0.00 | 40 | 1017.2 |
| 20260503222910 | 12 | 260 | 8.0 | 11.3 | 0.00 | 0.00 | 0.00 | 38 | 1016.9 |
| 20260503222409 | 12 | 262 | 6.4 | 16.1 | 0.00 | 0.00 | 0.00 | 40 | 1017.2 |
| 20260503221907 | 12 | 297 | 8.0 | 9.7 | 0.00 | 0.00 | 0.00 | 36 | 1017.0 |
| 20260503221405 | 12 | 299 | 9.7 | 14.5 | 0.00 | 0.00 | 0.00 | 38 | 1017.1 |
| 20260503220901 | 12 | 306 | 8.0 | 12.9 | 0.00 | 0.00 | 0.00 | 38 | 1017.3 |
| 20260503220358 | 12 | 0 | 1.6 | 3.2 | 0.00 | 0.00 | 0.00 | 36 | 1017.0 |
| 20260503215855 | 12 | 276 | 3.2 | 12.9 | 0.00 | 0.00 | 0.00 | 40 | 1017.1 |
| 20260503215352 | 12 | 202 | 8.0 | 11.3 | 0.00 | 0.00 | 0.00 | 42 | 1017.0 |
| 20260503214849 | 12 | 24 | 1.6 | 4.8 | 0.00 | 0.00 | 0.00 | 35 | 1017.1 |
| 20260503214347 | 12 | 339 | 6.4 | 11.3 | 0.00 | 0.00 | 0.00 | 39 | 1017.0 |